Home > Weather > Cadiz > Past weeks

Flag for Spain Past Weather in Cadiz, Cádiz, Spain — Yesterday and Last 2 Weeks

Now
77 °F

Passing clouds.


Feels Like: 79 °F
Forecast: 72 / 84 °F
Wind: 9 mph from West

Location: Rota Airport

Current Time: Jul 30, 2016 at 5:08:56 PM

Latest Report: Jul 30, 2016 at 4:00 PM


Visibility: N/A

Pressure: 30.04 "Hg

Humidity: 65%

Dew Point: 64 °F

Location of CadizLocation

Past Weather in Cadiz — Graph

°F

Cadiz Temperature Yesterday

Maximum temperature yesterday: 84 °F (at 11:00 AM)
Minimum temperature yesterday: 68 °F (at 7:00 AM)
Average temperature yesterday: 76 °F

High & Low Weather Summary for the Past Weeks

 TemperatureHumidityPressure
High97 °F (Jul 25, 3:00 PM)94% (Jul 21, 4:00 AM)30.07 "Hg (Jul 21, 4:00 AM)
Low66 °F (Jul 21, 8:00 AM)23% (Jul 17, 4:00 PM)29.89 "Hg (Jul 18, 7:00 PM)
Average79 °F59%29.97 "Hg
* Reported Jul 15 4:00 PM — Jul 30 4:00 PM, Cadiz, Weather by CustomWeather, © 2016

Note: Actual official high and low records may vary slightly from our data, if they occured in-between our weather recording intervals... More about our weather records

Advertising

Cadiz Weather History for the Previous 24 Hours

Scroll right to see more
 ConditionsComfort  
Time TempWeatherWind HumidityBarometerVisibility
4:00 PM
Sat, Jul 30
77 °FPassing clouds.9 mph65%30.04 "HgN/A
3:00 PM77 °FPassing clouds.9 mph65%30.07 "HgN/A
2:00 PM77 °FPassing clouds.8 mph65%30.07 "HgN/A
1:00 PM75 °FPassing clouds.8 mph69%30.07 "HgN/A
12:00 PM75 °FPassing clouds.7 mph65%30.07 "HgN/A
11:00 AM75 °FScattered clouds.5 mph69%30.07 "HgN/A
10:00 AM73 °FPartly sunny.5 mph69%30.04 "HgN/A
9:00 AM72 °FPartly sunny.3 mph73%30.04 "HgN/A
8:00 AM72 °FOvercast.3 mph73%30.04 "HgN/A
7:00 AM72 °FPassing clouds.5 mph73%30.04 "HgN/A
6:00 AM72 °FPassing clouds.6 mph73%30.01 "HgN/A
5:00 AM70 °FPassing clouds.6 mph78%30.01 "HgN/A
4:00 AM70 °FPassing clouds.6 mph78%30.01 "HgN/A
3:00 AM72 °FPassing clouds.9 mph78%30.04 "HgN/A
2:00 AM72 °FPassing clouds.10 mph83%30.04 "HgN/A
1:00 AM72 °FPassing clouds.10 mph83%30.04 "HgN/A
12:00 AM72 °FPassing clouds.9 mph83%30.01 "HgN/A
11:00 PM
Fri, Jul 29
72 °FPassing clouds.10 mph88%30.01 "HgN/A
10:00 PM73 °FPassing clouds.10 mph83%29.98 "HgN/A
9:00 PM73 °FPassing clouds.12 mph83%29.95 "HgN/A
8:00 PM75 °FPassing clouds.13 mph83%29.95 "HgN/A
7:00 PM77 °FScattered clouds.13 mph74%29.95 "HgN/A
6:00 PM79 °FScattered clouds.15 mph74%29.95 "HgN/A
5:00 PM79 °FScattered clouds.17 mph74%29.95 "HgN/A
Weather by CustomWeather, © 2016

See weather overviewHow to use our weather pages